International Virtual Aviation Organisation

Russian Federation and Kazakhstan MCD

 

Карточка аэропорта UUDD

Внимание!
Информация на этой странице в стадии наполнения.
Если вы не увидели какой-то информации, или заметили неточность - пожалуйста сообщите нам!
Спасибо!
Команда RU-STAFF
Название аэропортаДомодедово
Название аэропорта (англ.)Domodedovo
Превышение594 ft. (181.1 m.)
Координаты55°24.516', 37°54.384'
Высота перехода1200 m
Эшелон переходаBy ATC
Коды ответчика1540-1577
Зона ОрВДМосква РПИ (UUWV)
Данные METARUUDD 182000Z 30003MPS 8000 FEW032 07/05 Q0999 R88/CLRD70 NOSIG
Проноз погоды (TAF)UUDD 181657Z 1818/1924 33005MPS 9999 BKN015 TX12/1911Z TN06/1902Z TEMPO 1818/1824 -SHRA FEW005 BKN015CB TEMPO 1910/1918 -SHRA BKN011CB BECMG 1918/1919 VRB01MPS PROB40 TEMPO 1919/1924 0300 FG SCT003
NOTAMshow/hide NOTAM
AWOS   TABLE

Информация о ВПП

ВПП Длина ВПП (м.) Покрытие Курс ВПП Частота ILS
14L3793Бетон136108.5
32R3793Бетон316111.9
14R3500Цементобетон136110.1
32L3500Цементобетон316109.3

Диспетчерские позиции

Позывной Наименование органа УВД Частота
UUDD_GNDДомодедово-Перрон119.000
UUDD_R_APPДомодедово-Круг127.700
UUDD_TWRДомодедово-Вышка119.700
UUDD_DELДомодедово-Деливери 129.150
UUDDFM1Машина сопровождения119.000



Спутниковое изображение